ASTRA 2D

Last updated on May 21, 2019, 3:10 a.m. UTC

1 26638U 00081A   19140.02392164  .00000019  00000-0  00000+0 0  9995
2 26638   5.0125  66.7345 0001712 339.9808 204.5187  1.00268403 67466
UTC
Height (km)
Latitude
Longitude
Inclination
Orbital Period
UTC large
Height (km)
Speed (km/s)
/
Latitude / Longitude
Inclination (degrees)
Orbital Period (minutes)
Azimuth
Elevation
Range (km)
Doppler Factor
iOS Compass Heading
iOS Angle

Next 30 passes for location: Hong Kong

Rise time Rise Azimuth (degrees) Set time Set Azimuth (degrees) Duration Max altitude (degrees)

No matching passes for this satellites